Tracking 18945 objects as of 20-Jan-2018
HD Live streaming from Space Station
objects crossing your sky now

FLOCK 2K 14

Track FLOCK 2K 14 now!
10-day predictions
FLOCK 2K 14 is classified as:


NORAD ID: 42892
Int'l Code: 2017-042BV
Perigee: 459.4 km
Apogee: 474.3 km
Inclination: 97.0 °
Period: 93.8 minutes
Semi major axis: 6837 km
RCS: Unknown
Launch date: July 14, 2017
Source: United States (US)
Launch site: TYURATAM MISSILE AND SPACE COMPLEX (TTMTR)
aabbcc
Your satellite tracking list
Your tracking list is empty




NASA's NSSDC Master Catalog

Two Line Element Set (TLE):
1 42892U 17042BV  18019.67389032 +.00007816 +00000-0 +22902-3 0  9996
2 42892 096.9935 283.8417 0010841 278.6214 081.3802 15.35406542028844
Source of the keplerian elements: AFSPC